Regional Weather Roundup
Issued by NWS

Home | Current Version | Previous Version | Graphics & Text | Print | Product List | Glossary On
Versions: 1 2 3 4 5 6 7 8 9 10 11 12 13 14 15 16 17 18 19 20 21 22 23 24 25 26 27 28 29 30 31 32 33 34 35 36 37 38 39 40 41 42 43 44 45 46 47 48 49 50
000
ASUS44 KMEG 311000
RWRTN
TENNESSEE HOURLY STATE WEATHER ROUNDUP
NATIONAL WEATHER SERVICE MEMPHIS TN
500 AM CDT TUE MAY 31 2016

TNZ002-004-019-021-049-052-054-088>092-311100-
WEST TENNESSEE

CITY           SKY/WX    TMP DP  RH WIND       PRES   REMARKS
MEMPHIS INTL   CLOUDY    73  65  75 NE6       29.94S
NWS MEMPHIS      N/A     70 N/A N/A MISG        N/A
JACKSON        CLOUDY    68  65  90 CALM      29.95R
DYERSBURG      CLOUDY    72  68  88 CALM      29.95R
UNION CITY     CLEAR     68  68 100 CALM      29.94R
PARIS          CLEAR     64  61  88 CALM      29.96S
LEXINGTON      CLEAR     64  64 100 CALM      29.95R
$$

TNZ008-025-027-028-033-062-065-066-311100-
NORTH MIDDLE TENNESSEE

CITY           SKY/WX    TMP DP  RH WIND       PRES   REMARKS
NASHVILLE      CLOUDY    65  60  84 CALM      29.97R
CLARKSVILLE    CLOUDY    65  62  90 CALM      29.96S
COOKEVILLE     CLEAR     57  57 100 CALM      29.97S
CROSSVILLE     CLOUDY    60  57  89 CALM      30.01S
$$

TNZ061-075-076-078-094-096-097-311100-
SOUTH MIDDLE TENNESSEE

CITY           SKY/WX    TMP DP  RH WIND       PRES   REMARKS
TULLAHOMA      CLEAR     59  59 100 CALM      29.98R
WINCHESTER     CLEAR     61  57  88 CALM      29.97R
MCMINNVILLE    CLEAR     61  61 100 CALM      29.98R
COLUMBIA       CLEAR    N/A N/A N/A CALM      29.96R
SHELBYVILLE    CLEAR     61  61 100 CALM      29.98R
$$

TNZ017-018-042-046-047-311100-
NORTHEAST TENNESSEE

CITY           SKY/WX    TMP DP  RH WIND       PRES   REMARKS
TRI CITIES     FOG       61  60  97 CALM      30.01R VSB 1/4
$$

TNZ012-013-036-069-073-074-311100-
CENTRAL EAST TENNESSEE

CITY           SKY/WX    TMP DP  RH WIND       PRES   REMARKS
KNOXVILLE      PTCLDY    64  62  93 NE5       29.96R
OAK RIDGE      CLEAR     65  62  90 CALM      29.97F
GATLINBURG     CLEAR     61  57  88 CALM      29.98R
$$

TNZ083-085-099-311100-
SOUTHEAST TENNESSEE

CITY           SKY/WX    TMP DP  RH WIND       PRES   REMARKS
CHATTANOOGA    PTCLDY    66  61  84 CALM      29.95R
$$

SKY/WX REPORTED AS FAIR MEANS FEW OR NO CLOUDS BELOW
12 THOUSAND FEET.





USA.gov is the U.S. government's official web portal to all federal, state and local government web resources and services.